Tracking 18785 objects as of 23-July-2017
HD Live streaming from Space Station
objects crossing your sky now
MAYAK may become the brightest orbital object in the night sky!
Where is MAYAK now?
How to spot MAYAK

COSMOS 1367

Track COSMOS 1367 now!
COSMOS 1367 is classified as:


NORAD ID: 13205
Int'l Code: 1982-045A
Perigee: 6,919.4 km
Apogee: 33,471.7 km
Inclination: 70.7 °
Period: 718.2 minutes
Semi major axis: 26566 km
RCS: 15.3973 m2 (large)
Launch date: May 20, 1982
Source: Commonwealth of Independent States (former USSR) (CIS)
Launch site: PLESETSK MISSILE AND SPACE COMPLEX (PKMTR)
Your satellite tracking list
Your tracking list is empty





NASA's NSSDC Master Catalog

Two Line Element Set (TLE):
1 13205U 82045A   17203.19929678 +.00000167 +00000-0 +00000-0 0  9998
2 13205 070.6956 207.9045 4997310 060.6056 252.9542 02.00493548257591
Source of the keplerian elements: AFSPC